FW4682 Weather Reports


time (UTC)temp
F
wind
direction
speed
knots
gust
knots
rain 1hr
in
rain 24hr
in
rain mn
in
humidity
%
barometer
mb
20260906032030 71 95 0.0 0.0 0.00 0.00 0.00 53 1015.1
20260906031537 71 95 0.0 0.9 0.00 0.00 0.00 53 1015.2
20260906031030 71 95 0.0 0.9 0.00 0.00 0.00 53 1015.2
20260906030632 71 95 0.0 0.9 0.00 0.00 0.00 53 1015.2
20260906030029 71 95 0.0 0.9 0.00 0.00 0.00 53 1015.1
20260906025629 71 95 0.0 0.9 0.00 0.00 0.00 52 1014.9
20260906025131 71 95 0.0 0.9 0.00 0.00 0.00 52 1014.9
20260906024530 71 95 0.0 0.9 0.00 0.00 0.00 52 1015.0
20260906024029 71 95 0.0 0.0 0.00 0.00 0.00 52 1014.9
20260906023529 71 95 0.0 1.7 0.00 0.00 0.00 51 1014.9
20260906023028 71 95 0.0 1.7 0.00 0.00 0.00 51 1014.7
20260906022629 72 92 0.0 1.7 0.00 0.00 0.00 51 1014.7
20260906022029 72 73 0.0 1.7 0.00 0.00 0.00 51 1014.6
20260906021531 72 73 0.0 1.7 0.00 0.00 0.00 51 1014.7
20260906021028 72 98 0.0 0.9 0.00 0.00 0.00 50 1014.6
20260906020528 72 98 0.0 0.9 0.00 0.00 0.00 50 1014.5
20260906015628 72 98 0.0 0.0 0.00 0.00 0.00 49 1014.5
20260906015029 72 98 0.0 0.0 0.00 0.00 0.00 49 1014.5
20260906014530 72 98 0.0 0.9 0.00 0.00 0.00 49 1014.5
20260906014028 72 98 0.0 0.9 0.00 0.00 0.00 48 1014.4
20260906013040 72 98 0.0 0.9 0.00 0.00 0.00 48 1014.3
20260906012527 72 96 0.0 0.0 0.00 0.00 0.00 46 1014.2
20260906012028 72 96 0.0 0.9 0.00 0.00 0.00 44 1014.1
20260906011527 72 96 0.0 0.9 0.00 0.00 0.00 43 1014.1
20260906011030 72 96 0.0 0.9 0.00 0.00 0.00 43 1014.2
20260906010527 72 96 0.0 0.0 0.00 0.00 0.00 42 1014.1
20260906010029 73 96 0.0 0.0 0.00 0.00 0.00 42 1014.1
20260906005627 73 96 0.0 1.7 0.00 0.00 0.00 44 1014.0
20260906005027 73 96 0.0 1.7 0.00 0.00 0.00 44 1014.0
20260906004527 73 96 0.9 1.7 0.00 0.00 0.00 44 1014.0
20260906004025 73 96 0.0 1.7 0.00 0.00 0.00 48 1013.8
20260906003525 74 88 0.0 0.9 0.00 0.00 0.00 48 1013.6
20260906003026 74 87 0.0 0.9 0.00 0.00 0.00 48 1013.6
20260906002627 74 87 0.0 0.9 0.00 0.00 0.00 49 1013.6
20260906002024 74 87 0.0 1.7 0.00 0.00 0.00 49 1013.4
20260906001524 74 101 0.0 1.7 0.00 0.00 0.00 51 1013.4
20260906001023 74 101 0.0 1.7 0.00 0.00 0.00 51 1013.3
20260906000525 75 94 0.0 0.9 0.00 0.00 0.00 52 1013.2
20260906000024 75 94 0.0 0.9 0.00 0.00 0.00 53 1013.3
20260905235524 76 82 0.0 0.9 0.00 0.00 0.00 55 1013.2
20260905235024 76 82 0.0 0.9 0.00 0.00 0.00 57 1013.2
20260905234525 76 82 0.0 0.0 0.00 0.00 0.00 58 1013.2
20260905234023 77 82 0.0 0.0 0.00 0.00 0.00 58 1013.0
20260905233524 77 82 0.0 0.0 0.00 0.00 0.00 59 1013.0
20260905233023 77 82 0.0 0.0 0.00 0.00 0.00 59 1013.0
20260905232626 78 82 0.0 0.0 0.00 0.00 0.00 59 1013.0
20260905232026 78 82 0.0 0.0 0.00 0.00 0.00 59 1013.0
20260905231527 79 82 0.0 0.9 0.00 0.00 0.00 58 1013.0
20260905231025 80 82 0.0 0.9 0.00 0.00 0.00 57 1013.0
20260905230523 80 82 0.0 0.9 0.00 0.00 0.00 56 1012.9
20260905230024 81 82 0.0 0.9 0.00 0.00 0.00 55 1012.8
20260905225523 82 82 0.0 0.0 0.00 0.00 0.00 54 1012.8
20260905225021 83 82 0.0 0.9 0.00 0.00 0.00 54 1012.8
20260905224627 82 82 0.0 1.7 0.00 0.00 0.00 54 1012.8
20260905224022 83 82 0.9 1.7 0.00 0.00 0.00 54 1012.7
20260905223522 83 82 0.9 1.7 0.00 0.00 0.00 53 1012.7
20260905223021 84 82 0.0 1.7 0.00 0.00 0.00 51 1012.7
20260905222622 84 73 0.0 1.7 0.00 0.00 0.00 50 1012.7
20260905222120 84 73 0.0 1.7 0.00 0.00 0.00 50 1012.7
20260905221519 85 68 0.0 0.9 0.00 0.00 0.00 49 1012.8
20260905221020 85 68 0.0 0.9 0.00 0.00 0.00 49 1012.9
20260905220519 85 68 0.0 2.6 0.00 0.00 0.00 50 1013.0
20260905220019 84 68 0.9 2.6 0.00 0.00 0.00 49 1012.8
20260905215017 84 74 0.0 1.7 0.00 0.00 0.00 51 1012.9
20260905214518 85 74 0.0 1.7 0.00 0.00 0.00 51 1013.0
20260905214018 84 77 0.0 2.6 0.00 0.00 0.00 50 1012.9
20260905213520 84 76 0.9 2.6 0.00 0.00 0.00 51 1013.0
20260905212618 83 111 1.7 5.2 0.00 0.00 0.00 49 1013.2
20260905212018 83 82 1.7 5.2 0.00 0.00 0.00 49 1013.2
20260905211518 83 105 1.7 7.0 0.00 0.00 0.00 49 1013.2
20260905211017 82 59 2.6 7.0 0.00 0.00 0.00 50 1013.1
20260905210517 82 121 1.7 5.2 0.00 0.00 0.00 50 1013.2
20260905210023 82 104 0.9 5.2 0.00 0.00 0.00 51 1013.2
20260905205515 81 86 0.9 5.2 0.00 0.00 0.00 51 1013.2
20260905205016 80 94 1.7 5.2 0.00 0.00 0.00 52 1013.2
20260905204515 80 87 0.9 3.5 0.00 0.00 0.00 52 1013.3
20260905204014 80 99 0.9 3.5 0.00 0.00 0.00 52 1013.5
20260905203515 79 101 0.9 5.2 0.00 0.00 0.00 53 1013.6
20260905203014 79 75 1.7 6.1 0.00 0.00 0.00 52 1013.6
20260905202615 79 76 0.9 4.3 0.00 0.00 0.00 53 1013.8
20260905202019 79 113 0.9 4.3 0.00 0.00 0.00 53 1013.9
20260905201515 79 93 1.7 4.3 0.00 0.00 0.00 53 1013.9
20260905201014 79 86 0.0 1.7 0.00 0.00 0.00 55 1014.1
20260905200514 79 83 0.0 2.6 0.00 0.00 0.00 55 1014.1
20260905200021 78 54 0.0 2.6 0.00 0.00 0.00 55 1014.0
20260905195513 78 108 0.9 2.6 0.00 0.00 0.00 55 1014.0
20260905195014 78 95 0.0 2.6 0.00 0.00 0.00 55 1014.0
20260905194514 78 103 0.9 2.6 0.00 0.00 0.00 55 1014.0
20260905194013 78 94 0.9 2.6 0.00 0.00 0.00 54 1014.0
20260905193513 78 98 0.9 2.6 0.00 0.00 0.00 55 1014.1
20260905193013 78 229 0.9 3.5 0.00 0.00 0.00 55 1014.2
20260905192613 77 96 0.9 5.2 0.00 0.00 0.00 55 1014.3
20260905192014 77 108 1.7 5.2 0.00 0.00 0.00 55 1014.2
20260905191513 77 84 0.0 6.1 0.00 0.00 0.00 55 1014.2
20260905191013 78 94 2.6 6.1 0.00 0.00 0.00 54 1014.2
20260905190614 78 115 2.6 5.2 0.00 0.00 0.00 54 1014.3
20260905190018 78 103 1.7 4.3 0.00 0.00 0.00 52 1014.2
20260905185512 78 95 0.0 5.2 0.00 0.00 0.00 52 1014.3
20260905185014 78 86 0.0 7.0 0.00 0.00 0.00 51 1014.5
20260905184518 79 91 0.9 7.0 0.00 0.00 0.00 50 1014.2
20260905184111 79 36 3.5 7.8 0.00 0.00 0.00 49 1013.9
20260905183510 79 84 3.5 9.6 0.00 0.00 0.00 49 1013.9
20260905183011 80 95 3.5 9.6 0.00 0.00 0.00 49 1013.9
20260905182612 81 89 1.7 4.3 0.00 0.00 0.00 52 1014.2
20260905182113 82 91 1.7 4.3 0.00 0.00 0.00 52 1014.2
20260905181010 85 77 1.7 12.2 0.00 0.00 0.00 46 1013.9
20260905180508 86 122 7.0 17.4 0.00 0.00 0.00 42 1014.2
20260905180008 89 136 7.0 17.4 0.00 0.00 0.00 39 1014.3
20260905175508 91 147 3.5 10.4 0.00 0.00 0.00 39 1014.3
20260905174518 94 142 3.5 7.0 0.00 0.00 0.00 37 1014.4
20260905174009 93 115 2.6 8.7 0.00 0.00 0.00 39 1014.2
20260905173509 93 96 3.5 8.7 0.00 0.00 0.00 37 1014.3
20260905173006 93 139 3.5 8.7 0.00 0.00 0.00 39 1014.5
20260905172506 94 166 4.3 10.4 0.00 0.00 0.00 36 1014.5
20260905172006 93 102 5.2 10.4 0.00 0.00 0.00 37 1014.6
20260905171505 93 65 4.3 8.7 0.00 0.00 0.00 36 1014.7
20260905171006 93 161 4.3 8.7 0.00 0.00 0.00 37 1014.7
20260905170505 93 123 2.6 9.6 0.00 0.00 0.00 37 1014.7
20260905170005 94 242 3.5 8.7 0.00 0.00 0.00 37 1014.6
20260905165605 93 96 0.9 6.1 0.00 0.00 0.00 38 1014.7
20260905165005 93 97 2.6 6.1 0.00 0.00 0.00 38 1014.7
20260905164503 93 90 2.6 7.8 0.00 0.00 0.00 39 1014.8
20260905164003 92 102 3.5 9.6 0.00 0.00 0.00 39 1014.8
20260905163503 93 127 3.5 9.6 0.00 0.00 0.00 39 1014.9
20260905163002 93 83 1.7 4.3 0.00 0.00 0.00 41 1014.9
20260905162504 93 69 1.7 7.0 0.00 0.00 0.00 41 1015.0
20260905162003 93 80 2.6 7.0 0.00 0.00 0.00 41 1015.2
20260905161504 93 121 1.7 7.0 0.00 0.00 0.00 41 1015.4
20260905161001 92 169 2.6 7.0 0.00 0.00 0.00 41 1015.4
20260905160503 92 95 1.7 6.1 0.00 0.00 0.00 41 1015.5
20260905160002 93 106 0.9 2.6 0.00 0.00 0.00 42 1015.6
20260905155603 92 98 0.9 5.2 0.00 0.00 0.00 42 1015.6
20260905155000 92 117 2.6 6.1 0.00 0.00 0.00 42 1015.6
20260905154501 92 161 1.7 6.1 0.00 0.00 0.00 42 1015.6
20260905154002 92 139 0.9 4.3 0.00 0.00 0.00 43 1015.5
20260905153504 92 85 0.9 4.3 0.00 0.00 0.00 42 1015.5
20260905153101 92 116 0.9 2.6 0.00 0.00 0.00 41 1015.4
20260905152600 91 77 0.0 6.1 0.00 0.00 0.00 44 1015.5
20260905152059 91 73 3.5 6.1 0.00 0.00 0.00 42 1015.5
20260905151559 92 44 0.9 2.6 0.00 0.00 0.00 44 1015.4
20260905151059 92 77 0.9 2.6 0.00 0.00 0.00 46 1015.4
20260905150556 91 61 0.9 2.6 0.00 0.00 0.00 46 1015.4
20260905150105 91 61 0.0 2.6 0.00 0.00 0.00 45 1015.3
20260905145555 89 78 0.0 3.5 0.00 0.00 0.00 46 1015.4
20260905145055 89 75 0.0 3.5 0.00 0.00 0.00 46 1015.4
20260905144554 88 160 0.9 3.5 0.00 0.00 0.00 45 1015.5
20260905144052 89 51 0.9 1.7 0.00 0.00 0.00 42 1015.5
20260905143651 88 98 0.0 2.6 0.00 0.00 0.00 43 1015.6
20260905143101 87 103 0.0 2.6 0.00 0.00 0.00 41 1015.6
20260905142549 87 77 0.0 1.7 0.00 0.00 0.00 36 1015.7
20260905142049 86 84 0.0 1.7 0.00 0.00 0.00 37 1015.7
20260905141548 86 78 0.9 2.6 0.00 0.00 0.00 36 1015.7
20260905141147 85 102 0.0 2.6 0.00 0.00 0.00 37 1015.6
20260905140548 84 102 0.9 1.7 0.00 0.00 0.00 37 1015.7
20260905140045 83 105 0.0 1.7 0.00 0.00 0.00 37 1015.6
20260905135545 83 104 0.0 2.6 0.00 0.00 0.00 37 1015.6
20260905135046 83 105 0.9 2.6 0.00 0.00 0.00 37 1015.6
20260905134043 84 56 0.0 0.9 0.00 0.00 0.00 39 1015.6
20260905133541 84 90 0.0 1.7 0.00 0.00 0.00 39 1015.7
20260905133041 83 67 0.0 2.6 0.00 0.00 0.00 39 1015.8
20260905132539 83 70 0.0 1.7 0.00 0.00 0.00 39 1015.9
20260905131539 81 89 0.0 1.7 0.00 0.00 0.00 43 1015.9
20260905131036 80 119 0.0 1.7 0.00 0.00 0.00 44 1016.0
20260905130539 79 109 0.9 1.7 0.00 0.00 0.00 42 1016.1
20260905130034 80 122 0.0 0.9 0.00 0.00 0.00 44 1016.1
20260905125535 79 122 0.0 0.0 0.00 0.00 0.00 45 1016.2
20260905125033 78 129 0.0 0.0 0.00 0.00 0.00 45 1016.1
20260905124533 77 129 0.0 0.9 0.00 0.00 0.00 47 1016.2
20260905124033 77 129 0.0 0.9 0.00 0.00 0.00 47 1016.2
20260905123529 76 114 0.0 0.0 0.00 0.00 0.00 47 1016.0
20260905123037 75 114 0.0 0.0 0.00 0.00 0.00 50 1016.1
20260905122528 74 114 0.0 0.0 0.00 0.00 0.00 51 1016.0
20260905122030 74 114 0.0 0.0 0.00 0.00 0.00 51 1016.0
20260905121535 74 114 0.0 0.0 0.00 0.00 0.00 50 1016.0
20260905121027 73 114 0.0 0.0 0.00 0.00 0.00 52 1016.0
20260905120527 73 115 0.0 0.0 0.00 0.00 0.00 53 1016.0
20260905120029 72 115 0.0 0.0 0.00 0.00 0.00 53 1015.9
20260905115526 72 94 0.0 0.0 0.00 0.00 0.00 54 1015.8
20260905115026 71 94 0.0 0.0 0.00 0.00 0.00 54 1016.0
20260905114527 71 94 0.0 0.0 0.00 0.00 0.00 54 1015.8
20260905114027 70 94 0.0 0.0 0.00 0.00 0.00 54 1015.8
20260905113526 70 94 0.0 0.0 0.00 0.00 0.00 54 1015.7
20260905113026 70 94 0.0 0.0 0.00 0.00 0.00 54 1015.6
20260905112526 70 94 0.0 0.0 0.00 0.00 0.00 54 1015.4
20260905112035 70 94 0.0 0.0 0.00 0.00 0.00 54 1015.5
20260905111527 70 95 0.0 0.0 0.00 0.00 0.00 54 1015.4
20260905111027 70 94 0.0 0.0 0.00 0.00 0.00 54 1015.4
20260905110526 70 94 0.0 0.9 0.00 0.00 0.00 54 1015.2
20260905110026 70 94 0.0 0.9 0.00 0.00 0.00 54 1015.2
20260905105526 70 94 0.0 0.0 0.00 0.00 0.00 54 1015.1
20260905105029 70 94 0.0 0.9 0.00 0.00 0.00 54 1015.0
20260905104524 70 94 0.0 0.0 0.00 0.00 0.00 54 1014.9
20260905104024 70 94 0.0 0.9 0.00 0.00 0.00 54 1014.9
20260905103524 70 94 0.0 0.9 0.00 0.00 0.00 54 1014.9
20260905103126 70 94 0.0 0.9 0.00 0.00 0.00 54 1014.9
20260905102522 70 94 0.0 0.9 0.00 0.00 0.00 54 1014.8
20260905102022 70 94 0.0 0.9 0.00 0.00 0.00 54 1014.8
20260905101522 70 94 0.0 0.9 0.00 0.00 0.00 54 1014.8
20260905101022 70 94 0.0 0.0 0.00 0.00 0.00 54 1014.8
20260905100622 70 94 0.0 0.0 0.00 0.00 0.00 54 1014.8
20260905100023 70 94 0.0 0.0 0.00 0.00 0.00 54 1014.7
20260905095523 70 94 0.0 0.0 0.00 0.00 0.00 54 1014.8
20260905095021 70 94 0.0 0.0 0.00 0.00 0.00 54 1014.9
20260905094532 71 94 0.0 0.0 0.00 0.00 0.00 54 1014.7
20260905093519 71 94 0.0 0.0 0.00 0.00 0.00 54 1014.7
20260905093019 71 94 0.0 0.0 0.00 0.00 0.00 54 1014.8
20260905092519 71 94 0.0 0.0 0.00 0.00 0.00 54 1014.8
20260905092028 71 94 0.0 0.0 0.00 0.00 0.00 54 1014.8
20260905091021 71 94 0.0 0.0 0.00 0.00 0.00 54 1014.7
20260905090522 71 94 0.0 0.0 0.00 0.00 0.00 54 1014.8
20260905090020 71 94 0.0 0.0 0.00 0.00 0.00 54 1014.7
20260905085520 71 94 0.0 0.9 0.00 0.00 0.00 54 1014.8
20260905085022 71 94 0.0 0.9 0.00 0.00 0.00 54 1014.9
20260905084519 71 94 0.0 0.0 0.00 0.00 0.00 54 1014.9
20260905084020 71 94 0.0 0.0 0.00 0.00 0.00 54 1015.0
20260905083516 71 94 0.0 0.9 0.00 0.00 0.00 54 1015.1
20260905083015 71 94 0.0 0.9 0.00 0.00 0.00 54 1015.2
20260905082515 72 91 0.0 0.0 0.00 0.00 0.00 54 1015.3
20260905082014 72 91 0.0 0.0 0.00 0.00 0.00 54 1015.2
20260905081514 72 91 0.0 0.0 0.00 0.00 0.00 54 1015.2
20260905081013 72 91 0.0 0.9 0.00 0.00 0.00 53 1015.3
20260905080515 72 91 0.0 0.9 0.00 0.00 0.00 53 1015.4
20260905080013 72 91 0.0 0.9 0.00 0.00 0.00 54 1015.4
20260905075514 72 91 0.0 0.9 0.00 0.00 0.00 54 1015.5
20260905075013 72 91 0.0 0.9 0.00 0.00 0.00 54 1015.5
20260905074512 72 91 0.0 0.0 0.00 0.00 0.00 54 1015.4
20260905074010 72 91 0.0 0.0 0.00 0.00 0.00 54 1015.6
20260905073511 72 91 0.0 0.0 0.00 0.00 0.00 53 1015.6
20260905073010 72 91 0.0 0.9 0.00 0.00 0.00 53 1015.6
20260905072513 72 91 0.0 0.9 0.00 0.00 0.00 53 1015.6
20260905072008 72 91 0.0 0.0 0.00 0.00 0.00 53 1015.6
20260905071508 72 91 0.0 0.0 0.00 0.00 0.00 53 1015.6
20260905071107 72 91 0.0 0.0 0.00 0.00 0.00 53 1015.7
20260905070506 72 91 0.0 0.9 0.00 0.00 0.00 53 1015.6
20260905070008 72 91 0.0 0.0 0.00 0.00 0.00 53 1015.8
20260905065504 73 91 0.0 0.9 0.00 0.00 0.00 53 1015.9
20260905065007 73 91 0.0 0.9 0.00 0.00 0.00 53 1015.9
20260905064505 73 91 0.0 0.9 0.00 0.00 0.00 53 1015.9
20260905064004 73 91 0.0 1.7 0.00 0.00 0.00 53 1016.0
20260905063503 73 91 0.0 0.9 0.00 0.00 0.00 53 1016.0
20260905063005 73 91 0.0 0.9 0.00 0.00 0.00 53 1016.0
20260905062605 73 91 0.0 0.9 0.00 0.00 0.00 53 1016.0
20260905062002 73 90 0.0 0.9 0.00 0.00 0.00 52 1016.0
20260905061502 73 90 0.0 0.9 0.00 0.00 0.00 52 1016.1
20260905061002 73 90 0.0 0.9 0.00 0.00 0.00 52 1016.2
20260905060502 73 90 0.0 0.9 0.00 0.00 0.00 52 1016.3
20260905060108 73 90 0.0 0.0 0.00 0.00 0.00 52 1016.4
20260905055558 73 90 0.0 0.0 0.00 0.00 0.00 52 1016.5
20260905054606 73 90 0.0 0.9 0.00 0.00 0.00 52 1016.6
20260905054102 73 90 0.0 0.9 0.00 0.00 0.00 52 1016.7
20260905053659 73 97 0.0 0.9 0.00 0.00 0.00 52 1016.7
20260905053058 73 106 0.0 0.9 0.00 0.00 0.00 52 1016.8
20260905052600 74 106 0.0 0.9 0.00 0.00 0.00 52 1016.7
20260905052100 74 108 0.0 0.9 0.00 0.00 0.00 52 1016.8
20260905051608 74 108 0.0 0.0 0.00 0.00 0.00 52 1016.7
20260905051156 74 108 0.0 0.0 0.00 0.00 0.00 52 1016.6
20260905050556 74 108 0.0 0.9 0.00 0.00 0.00 51 1016.6
20260905045554 74 108 0.0 0.0 0.00 0.00 0.00 50 1016.7
20260905044053 74 108 0.0 0.0 0.00 0.00 0.00 50 1016.7
20260905043554 74 108 0.0 0.0 0.00 0.00 0.00 50 1016.7
20260905043052 74 116 0.0 0.0 0.00 0.00 0.00 50 1016.7
20260905042555 74 116 0.0 0.0 0.00 0.00 0.00 50 1016.6
20260905041550 74 116 0.0 0.9 0.00 0.00 0.00 50 1016.6
20260905041050 74 116 0.0 0.9 0.00 0.00 0.00 50 1016.5
20260905040549 74 117 0.0 0.9 0.00 0.00 0.00 50 1016.4
20260905040058 74 117 0.0 0.9 0.00 0.00 0.00 50 1016.4
20260905035547 74 118 0.0 0.9 0.00 0.00 0.00 50 1016.4
20260905035048 74 125 0.0 0.0 0.00 0.00 0.00 49 1016.5
20260905034548 74 125 0.0 0.9 0.00 0.00 0.00 48 1016.4
20260905034049 75 125 0.0 0.9 0.00 0.00 0.00 48 1016.5
20260905033547 75 127 0.0 0.0 0.00 0.00 0.00 48 1016.4
20260905033056 75 128 0.0 0.0 0.00 0.00 0.00 46 1016.5
20260905032548 75 129 0.0 0.9 0.00 0.00 0.00 44 1016.4